Location: Benalto
(52.3088°N, 114.2787°W)
Time: 11:38:05
(UTC+00:00)

N. Korean satellite - Pass Details

Date: 30 November 2021
Orbit: 447 x 490 km, 97.3° (Epoch: 27 January)

Event Time Altitude Azimuth Distance (km) Brightness Sun altitude
Rises 14:32:17 0° 356° (N) 2,488 9.9 -7.5°
Reaches altitude 10° 14:35:27 10° 324° (NW) 1,598 8.6 -7.1°
Maximum altitude 14:36:43 12° 302° (WNW) 1,488 8.4 -6.9°
Drops below altitude 10° 14:38:00 10° 280° (W) 1,588 8.6 -6.7°
Sets 14:41:07 0° 247° (WSW) 2,449 9.8 -6.3°
